Weather in Zarechnaya Medla

Russia / Udmurt Republic     57°37′21″N   53°55′35″E
temp.,
°C
wind,
m/s
gust,
m/s
humid.,
%
clouds,
%
prec.,
mm/h
press.,
hPa
HPBL,
m
28 january, thu
thu2801:00−7ssw81690100 0.0 1021502
04:00−6ssw81692100 0.0 1020571
07:00−6ssw81692100 0.0 1019572
10:00−6ssw71391100 0.1 1019546
13:00−5ssw71290100 0.0 1018512
16:00−5ssw61193100 0.0 1019437
19:00−6ssw51095100 0.0 1019348
22:00−7s4997100 0.1 1019274
29 january, fri
fri2901:00−9s4997100 0.0 1019226
04:00−10sse3496100 0.0 1019102
07:00−12se3696100 0.0 1018108
10:00−10se4894100 0.0 1018230
13:00−7sse5894100 0.0 1016328
16:00−6sse5993100 0.0 1015439
19:00−7se4896100 0.0 1014197
22:00−7se4894100 0.0 1012208
30 january, sat
sat3001:00−6se51090100 0.0 1010350
04:00−5sse51096100 2.3 1009578
07:00−6s41195100 0.4 1008448
10:00−5s41096100 0.9 1008420
13:00−4s599598 0.1 1009450
16:00−4s699599 0.2 1009468
19:00−4sse61196100 0.0 1008457
22:00−3s61396100 1.1 1007733
31 january, sun
sun3101:00−3s71295100 0.9 1007693
04:00−5ssw6129397 1.1 1009436
07:00−9ssw499696 0.0 1010181
10:00−9s4109576 0.0 1012211
13:00−4s5109498 0.0 1012410
16:00−1sse7139699 0.3 1011697
19:00−1s71395100 0.8 1010676
22:00−3sse71490100 0.8 1007540
1 february, mon
mon101:00−3sse91983100 0.0 1003755
04:00−4s81695100 2.7 9991004
07:00−1ssw91593100 1.5 998965
10:00−3sw8159199 1.9 1000758
13:00−2sw91492100 0.1 1004897
16:00−5wsw81488100 0.3 1009868
19:00−7wsw71491100 0.1 1013645
22:00−8wsw51292100 0.1 1017509